Weather in Sidorovsk

Russia / Yamalo-Nenets Autonomous Okrug     66°36′26″N   82°17′13″E
temp.,
°C
wind,
m/s
gust,
m/s
humid.,
%
clouds,
%
prec.,
mm/h
press.,
hPa
HPBL,
m
27 february, sat
sat2723:00−28wnw1298100 0.2 102219
02:00−29wnw2299100 0.1 102219
05:00−30nne11100100 0.1 102319
08:00−33e1110090 0.0 102319
11:00−29e229378 0.0 1024145
14:00−28ese229353 0.0 1024151
17:00−33ese229827 0.0 102519
20:00−34ese23980 0.0 102619
28 february, sun
sun2823:00−35ese23990 0.0 102719
02:00−35se33990 0.0 102819
05:00−36se33980 0.0 102919
08:00−36se34970 0.0 102927
11:00−31sse35950 0.0 1029184
14:00−30sse35930 0.0 1030242
17:00−33se34968 0.0 103020
20:00−34se449539 0.0 102933
1 march, mon
mon123:00−34sse459641 0.0 102938
02:00−35sse459630 0.0 102939
05:00−34sse459658 0.0 102869
08:00−32sse589587 0.0 1028202
11:00−29sse579493 0.0 1027268
14:00−27sse5796100 0.1 1025289
17:00−26sse5897100 0.2 1024293
20:00−25s5995100 0.1 1023280
2 march, tue
tue223:00−25s5995100 0.1 1022249
02:00−26s5994100 0.0 1022219
05:00−26s6995100 0.0 1022218
08:00−27s61095100 0.0 1022248
11:00−25s71093100 0.0 1022304
14:00−23s71090100 0.0 1022337
17:00−24sse61191100 0.0 1021235
20:00−24sse7139096 0.0 1021259
3 march, wed
wed323:00−25sse6119195 0.0 1021221
02:00−25sse61191100 0.0 1021246
05:00−26sse71189100 0.0 1021245
08:00−25sse71189100 0.0 1021280
11:00−23sse71187100 0.0 1021365
14:00−21sse71285100 0.0 1021417
17:00−22sse61287100 0.0 1020253
20:00−23sse71289100 0.0 1020243